Location: Newark
(33.6333°S, 78.8500°W)
Time: 23:16:36
(UTC+00:00)

ISS - Pass Details

Date: 25 August 2019
Orbit: 411 x 421 km, 51.6° (Epoch: 20 September)

Event Time Altitude Azimuth Distance (km) Brightness Sun altitude
Rises 23:37:08 0° 267° (W) 2,376 2.1 -9.9°
Reaches altitude 10° 23:40:15 10° 235° (SW) 1,514 -0.2 -10.5°
Maximum altitude 23:41:47 13° 208° (SSW) 1,371 -0.9 -10.9°
Drops below altitude 10° 23:43:20 10° 181° (S) 1,517 -1.0 -11.2°
Enters shadow 23:45:43 - 155° (SSE) 2,140 -0.5 -11.7°
